Home   Weather   22°35'N, 88°22'E   Past weeks
Flag for India

Past Weather in 22°35'N, 88°22'E, India — Yesterday and Last 2 Weeks

Now
90 °F

Haze.


Feels Like: 100 °F
Forecast: 86 / 76 °F
Wind: 8 mph from North

Location: Calcutta / Dum Dum

Current Time: Oct 22, 2019 at 4:46:48 pm

Latest Report: Oct 22, 2019 at 4:00 pm


Visibility: 2 mi

Pressure: 29.74 "Hg

Humidity: 63%

Dew Point: 75 °F

Location of 22°35'N, 88°22'ELocation

Past Weather in 22°35'N, 88°22'E — Graph

°F

22°35'N, 88°22'E Temperature Yesterday

Maximum temperature yesterday: 90 °F (at 12:00 pm)
Minimum temperature yesterday: 77 °F (at 4:00 am)
Average temperature yesterday: 83 °F

High & Low Weather Summary for the Past Weeks

 TemperatureHumidityPressure
High93 °F (Oct 18, 1:00 pm)100% (Oct 9, 4:30 am)29.98 "Hg (Oct 9, 4:30 am)
Low73 °F (Oct 9, 7:05 am)55% (Oct 14, 2:00 pm)29.74 "Hg (Oct 7, 4:00 pm)
Average82 °F85%29.86 "Hg
* Reported Oct 7 3:30 pm — Oct 22 3:30 pm, 22°35'N, 88°22'E. Weather by CustomWeather, © 2019

Note: Actual official high and low records may vary slightly from our data, if they occured in-between our weather recording intervals... More about our weather records

Advertising

22°35'N, 88°22'E Weather History for the Previous 24 Hours

Scroll right to see more
 ConditionsComfort  
Time TempWeatherWind HumidityBarometerVisibility
3:30 pm
Tue, Oct 22
90 °FHaze.5 mph63%29.74 "Hg2 mi
3:00 pm90 °FScattered clouds.6 mph63%29.74 "Hg2 mi
2:30 pm91 °FScattered clouds.7 mph63%29.74 "Hg2 mi
2:00 pm90 °FScattered clouds.5 mph67%29.77 "Hg2 mi
1:30 pm90 °FScattered clouds.3 mph67%29.77 "Hg2 mi
1:00 pm88 °FBroken clouds.6 mph70%29.77 "Hg2 mi
12:30 pm88 °FBroken clouds.8 mph75%29.80 "Hg2 mi
12:00 pm90 °FScattered clouds.3 mph71%29.77 "Hg2 mi
11:30 am88 °FScattered clouds.3 mph75%29.83 "Hg2 mi
11:00 am88 °FScattered clouds.3 mph75%29.83 "Hg2 mi
10:30 am88 °FHaze.5 mph75%29.83 "Hg2 mi
10:00 am86 °FHaze.3 mph75%29.86 "Hg2 mi
9:30 am84 °FFog.3 mph79%29.86 "Hg2 mi
9:00 am82 °FFog.3 mph84%29.86 "Hg2 mi
8:30 am82 °FFog.3 mph84%29.89 "Hg2 mi
8:00 am81 °FFog.3 mph89%29.86 "Hg1 mi
7:30 am79 °FFog.No wind94%29.86 "Hg1 mi
7:00 am79 °FFog.No wind94%29.83 "Hg1 mi
6:30 am79 °FFog.No wind94%29.83 "Hg1 mi
6:00 am77 °FFog.No wind94%29.80 "Hg1 mi
5:30 am77 °FFog.No wind94%29.80 "Hg1 mi
5:00 am77 °FFog.5 mph94%29.80 "Hg1 mi
4:30 am77 °FFog.6 mph94%29.77 "Hg2 mi
4:00 am77 °FFog.3 mph94%29.77 "Hg2 mi
3:30 am77 °FFog.No wind94%29.77 "Hg2 mi
3:00 am79 °FFog.6 mph94%29.80 "Hg2 mi
2:30 am79 °FFog.5 mph94%29.77 "Hg2 mi
2:00 am79 °FFog.No wind94%29.77 "Hg2 mi
1:30 am79 °FFog.No wind94%29.77 "Hg2 mi
1:00 am79 °FFog.No wind94%29.77 "Hg2 mi
12:30 am79 °FFog.No wind94%29.80 "Hg2 mi
12:00 am79 °FFog.No wind94%29.80 "Hg2 mi
11:30 pm
Mon, Oct 21
79 °FFog.No wind94%29.80 "Hg2 mi
11:00 pm79 °FFog.No wind94%29.80 "Hg2 mi
10:30 pm79 °FHaze.No wind94%29.83 "Hg2 mi
10:00 pm81 °FHaze.No wind94%29.83 "Hg2 mi
9:30 pm81 °FHaze.5 mph94%29.83 "Hg2 mi
9:00 pm82 °FHaze.7 mph89%29.83 "Hg2 mi
8:30 pm82 °FHaze.5 mph89%29.83 "Hg2 mi
8:00 pm82 °FHaze.No wind84%29.83 "Hg2 mi
7:30 pm84 °FHaze.No wind84%29.83 "Hg2 mi
7:00 pm84 °FHaze.3 mph84%29.80 "Hg2 mi
6:30 pm84 °FHaze.3 mph84%29.80 "Hg2 mi
6:00 pm86 °FHaze.5 mph79%29.77 "Hg2 mi
5:30 pm86 °FHaze.3 mph79%29.77 "Hg2 mi
5:00 pm86 °FHaze.5 mph79%29.77 "Hg2 mi
4:30 pm88 °FHaze.3 mph75%29.77 "Hg2 mi
4:00 pm88 °FHaze.6 mph75%29.77 "Hg2 mi
Weather by CustomWeather, © 2019

See weather overview